Вернуться в каталог

STARLINK-31340

АктивенСвязьVLEO
NORAD 59170·PAYLOAD·🇺🇸 United States

Запущен Mar 4, 2024 с Cape Canaveral Space Force Station

Loading…

Ближайшие Пролёты (ближайшие 24 часа)

TLE

СвежийSource: CelesTrak SupGP

Эпоха: Sep 15, 2026, 01:56 UTC

1 59170C 24044U   26258.08104167  .00011336  00000+0  41057-3 0  2587
2 59170  43.0003  77.8908 0001466 274.7860 241.0784 15.27575152    11

Отслеживайте STARLINK-31340 в реальном времени с AllMySat

Download on the App Store